Location: Banska Bystrica
(0.0000°N, 19.1500°E)
Time: 16:59:10
(UTC+02:00)

Daily predictions for brighter satellites

Satellite Brightness Start Highest point End
(mag) Time Altitude Azimuth Time Altitude Azimuth Time Altitude Azimuth
Ariane H10-3 4.4 18:39:35 10° WSW 18:45:01 71° S 19:19:06 11° E
Ariane H10-3 4.4 18:39:35 10° WSW 18:45:01 71° S 19:19:05 11° E
Cosmos 1818 3.5 18:47:08 10° NNW 18:52:30 76° ENE 18:57:52 10° SSE
CZ-4B R/B 3.3 18:52:56 10° S 18:57:16 82° W 19:01:43 10° NNW
Cosmos 2084 4.2 18:53:14 10° SW 18:57:18 54° WNW 19:01:09 10° NNE
Intelsat 5-3 Rocket 3.5 18:58:12 10° S 18:59:00 11° SSE 18:59:49 10° SE
SL-08 RB Rocket 3.6 19:00:45 10° SSE 19:05:13 83° E 19:09:44 10° N
Cosmos 1992 Rocket 4.3 19:01:09 10° NNW 19:06:19 72° WSW 19:11:32 10° S
Cosmos 2369 3.7 19:01:49 10° S 19:07:31 71° ESE 19:13:11 10° NNE
SL-8 R/B 4.2 19:03:17 10° NW 19:08:02 62° SW 19:12:47 10° SSE
CZ-4B DEB 4.4 19:03:56 10° SSE 19:09:08 46° ENE 19:14:19 10° N
Cosmos 1980 Rocket 2.2 19:06:16 10° S 19:11:56 72° ESE 19:17:34 10° NNE
Cosmos 1850 Rocket 4.2 19:08:04 10° S 19:13:03 48° ESE 19:18:00 10° NNE
Cosmos 2278 4.3 19:11:48 10° S 19:16:57 35° ESE 19:22:04 10° NE
ARGOS 4.2 19:11:58 10° S 19:17:09 51° WSW 19:22:19 10° NNW
Cosmos 1733 3.6 19:13:50 10° SSE 19:17:23 37° E 19:20:53 10° NNE
ARGOS Delta rocket 4.2 19:14:08 10° N 19:19:11 72° W 19:23:57 10° SSW
Lacrosse 5 rocket 1.7 19:15:43 10° NW 19:19:16 54° WSW 19:22:47 10° SSE
GPS 2-17 Rocket1 3.2 19:17:37 10° WSW 19:21:54 63° NNW 19:25:25 15° ENE
Cosmos 405 Rocket 3.3 19:18:08 10° NNW 19:22:01 61° W 19:25:51 10° S
SL-16 R/B 3.7 19:20:24 10° SE 19:23:23 15° ESE 19:23:23 15° ESE
Aurora 2 Rocket 4.1 19:21:13 10° W 19:24:56 25° SSW 19:27:57 10° SSE
Cosmos 1842 3.1 19:23:47 10° N 19:27:37 77° E 19:31:30 10° S
Meteor 2-15 4.4 19:21:53 10° N 19:27:54 60° E 19:33:57 10° SSE
SL-27 R/B 2.1 19:25:29 10° N 19:28:46 81° ENE 19:32:01 10° SSE
Cosmos 1726 2.9 19:29:40 10° SSE 19:32:47 28° E 19:33:18 27° ENE
Cosmos 2297 Rocket 4.0 19:30:28 10° NE 19:31:29 12° NE 19:31:29 12° NE
Cosmos 1707 3.0 19:32:48 10° NNE 19:36:22 40° E 19:39:59 10° SSE
ARIANE 5 R/B 3.0 19:31:13 10° W 19:36:32 83° N 19:38:12 29° E
ATLAS 2A CENTAUR R/B 1.7 19:34:06 10° NW 19:37:21 26° NNE 19:37:40 26° NNE
ARIANE 5 R/B 4.2 19:28:47 10° W 19:38:38 43° SSW 19:41:14 20° SE
Cosmos 1741 Rocket 4.0 19:33:18 10° SSW 19:38:38 86° WNW 19:43:56 10° N
HETE-2 4.5 19:34:30 10° W 19:38:42 87° S 19:40:32 33° E
Meteor 2-14 Rocket 4.5 19:34:15 10° S 19:40:14 55° E 19:46:08 10° NNE
Cosmos 1733 Rocket 3.1 19:38:24 10° S 19:42:46 82° W 19:47:08 10° N
Ariane H10 3.0 19:35:11 10° W 19:43:34 59° S 19:44:50 34° ESE
OAO 3 Rocket 4.0 19:39:21 10° WNW 19:43:54 46° SW 19:47:28 15° SSE
Cosmos 1703 Rocket 4.1 19:39:43 10° NNW 19:43:58 59° W 19:48:17 10° S
CZ-4 R/B 3.8 19:48:20 10° NNE 19:48:20 10° NNE 19:48:21 10° NNE
Okean 3 4.0 19:41:17 10° NNW 19:45:26 59° W 19:49:34 10° S
Meteor 2-15 Rocket 4.3 19:41:14 10° N 19:47:17 67° E 19:53:24 10° SSE
SWIFT 4.2 19:46:14 10° SSW 19:48:56 16° SSE 19:49:20 16° SSE
Cosmos 1805 3.8 19:48:39 10° SSW 19:52:27 59° W 19:56:15 10° N
Ariane H10 3.9 19:44:15 10° W 19:52:46 38° SSW 19:54:01 28° SSE
Nadezhda 4 Rocket 4.0 19:50:17 10° S 19:56:27 59° E 20:02:38 10° NNE
MINOTAUR IV R/B 4.5 19:53:36 10° SSW 19:58:10 90° WNW 20:01:41 16° NNE
IRIDIUM 106 4.3 19:53:18 10° SSE 19:58:26 59° E 20:03:32 10° N
Cosmos 1766 4.5 19:55:11 10° S 19:57:05 27° SSE 19:57:05 27° SSE
Okean O Rocket 2.0 20:00:00 44° NE 20:00:00 44° NE 20:03:19 10° N
Landsat 5 4.2 19:57:39 10° N 20:02:00 57° WNW 20:06:17 10° SSW
Timation 1 Rocket 4.4 19:57:04 10° NNW 20:03:00 79° WSW 20:08:58 10° SSE
CZ-4C R/B 3.5 19:56:32 10° N 20:04:37 43° ENE 20:07:02 36° ESE
BLOCK DM-SL R/B 2.7 20:03:47 10° W 20:04:49 21° W 20:04:49 21° W
Ariane H10-3 3.3 20:02:22 10° W 20:06:01 41° NNW 20:06:01 41° NNW
ATLAS 5 CENTAUR R/B 4.2 19:19:39 10° WSW 20:09:45 53° NNW 20:17:02 22° NE
In-Cosmos 22 4.2 20:04:47 10° N 20:10:01 75° W 20:15:22 10° S
Meteor 2-16 Rocket 4.4 20:05:32 10° S 20:11:30 58° E 20:13:35 39° NE
GPS 2-12 Rocket1 3.1 20:12:16 10° WNW 20:16:28 72° WSW 20:16:28 72° WSW
ARIANE 3 DEB 3.8 20:21:14 10° WSW 20:25:59 46° SW 20:25:59 46° SW
ATLAS 3B R/B 2.9 20:22:29 10° NNW 20:30:12 84° WSW 20:34:17 31° SSE
YAOGAN 1 4.2 20:31:11 10° SSW 20:35:03 33° WSW 20:38:56 10° NW
CZ-4B R/B 4.3 20:30:34 10° S 20:35:29 40° WSW 20:40:24 10° NW
Atlas 2A Centaur Rocket 4.5 20:29:56 10° WSW 20:36:05 76° NNW 21:21:25 10° ENE
USA 267 3.1 20:40:13 87° NE 20:40:13 87° NE 20:46:45 10° NW
Mugunghwa Rocket 4.2 20:35:23 10° WNW 20:43:05 83° N 20:43:05 83° N
Cosmos 2322 Rocket 4.1 20:37:53 10° S 20:39:25 19° S 20:39:25 19° S
ARIANE 5 DEB (SYLDA) 4.3 20:32:32 10° W 20:45:22 62° SSW 20:45:22 62° SSW
ARIANE 5 DEB (SYLDA) 4.0 20:31:34 10° W 21:03:15 81° S 21:03:31 80° SSE
SL-16 R/B 3.8 21:02:01 10° SW 21:05:22 30° WSW 21:05:22 30° WSW
Cosmos 2297 Rocket 4.5 21:12:04 10° NW 21:13:24 17° NW 21:13:24 17° NW
ARIANE 5 R/B 4.4 21:15:32 10° W 21:56:24 - E 21:16:25 20° W
